Flag for U.S.A. Weather past 2 weeks in Aspen, Colorado, U.S.A.

Now
12 °F

Light snow. Ice fog.


Feels Like: 12 °F
Forecast: -3 / 23 °F
Wind: No wind

Location: Aspen-Pitkin County Airport

Current Time: Dec 28, 2014 at 11:03:37 AM

Latest Report: Dec 28, 2014 at 9:57 AM


Visibility: 3 mi

Pressure: 30.02 "Hg

Humidity: 84%

Dew point: 8 °F

Location of AspenLocation

Historic Weather in Aspen — Graph

°F

Aspen temperature yesterday

Maximum temperature yesterday: 17 °F (at 2:53 PM)
Minimum temperature yesterday: -4 °F (at 11:53 PM)
Average temperature yesterday: 7 °F

Past Weeks' High & Low Weather Summary

 TemperatureHumidityPressure
High50 °F (Dec 13, 12:53 PM)100% (Dec 13, 7:53 PM)30.44 "Hg (Dec 13, 7:53 PM)
Low-4 °F (Dec 27, 11:53 PM)29% (Dec 13, 12:53 PM)29.44 "Hg (Dec 25, 1:53 PM)
Average21 °F79%30.00 "Hg
* Reported Dec 13 9:53 AM — Dec 28 9:57 AM, Aspen, Weather by CustomWeather, © 2014

Note: Actual official high and low records may vary slightly from our data, if they occured in-between our weather recording intervals... More about our weather records

Advertising

Aspen weather history for previous 24 hours

 ConditionsComfort  
Time TempWeatherWind HumidityBarometerVisibility
9:57 AM
Dec 28
12 °FLight snow. Ice fog.No wind84%30.02 "Hg3 mi
8:53 AM10 °FLight snow. Ice fog.No wind88%30.23 "Hg1 mi
7:53 AM8 °FLight snow. Overcast.6 mph79%30.24 "Hg2 mi
6:53 AM8 °FLight snow. Overcast.No wind79%30.23 "Hg4 mi
5:53 AM8 °FOvercast.3 mph72%30.23 "Hg10 mi
4:53 AM5 °FOvercast.5 mph80%30.29 "Hg10 mi
3:53 AM5 °FOvercast.No wind76%30.24 "Hg10 mi
2:53 AM4 °FOvercast.No wind76%30.24 "Hg10 mi
1:53 AM4 °FOvercast.5 mph76%30.28 "Hg10 mi
12:53 AM0 °FPassing clouds.6 mph79%30.31 "Hg10 mi
11:53 PM
Dec 27
-4 °FPassing clouds.5 mph79%30.37 "Hg10 mi
10:53 PM-2 °FClear.9 mph75%30.40 "Hg10 mi
9:53 PM1 °FClear.7 mph75%30.42 "Hg10 mi
8:53 PM5 °FPassing clouds.6 mph69%30.44 "Hg10 mi
7:53 PM6 °FOvercast.8 mph73%30.43 "Hg10 mi
6:53 PM7 °FPassing clouds.No wind70%30.41 "Hg10 mi
5:53 PM8 °FOvercast.6 mph69%30.39 "Hg10 mi
4:53 PM5 °FPassing clouds.5 mph69%30.40 "Hg10 mi
3:53 PM14 °FSunny.5 mph58%30.32 "Hg10 mi
2:53 PM17 °FSunny.3 mph54%30.27 "Hg10 mi
1:53 PM16 °FSunny.3 mph53%30.28 "Hg10 mi
12:53 PM16 °FSunny.5 mph51%30.29 "Hg10 mi
11:53 AM14 °FSunny.5 mph51%30.31 "Hg10 mi
Weather by CustomWeather, © 2014

See weather overviewHow to use our weather pages